GW5072 Weather Reports


time (UTC)temp
F
wind
direction
speed
knots
gust
knots
rain 1hr
in
rain 24hr
in
rain mn
in
humidity
%
barometer
mb
20260901184014 89 10 0.0 0.9 0.00 0.00 0.00 69 1015.1
20260901183519 88 271 0.0 2.6 0.00 0.00 0.00 69 1015.2
20260901183034 88 276 0.0 2.6 0.00 0.00 0.00 70 1015.2
20260901182512 88 319 0.0 0.9 0.00 0.00 0.00 71 1015.4
20260901182019 88 61 0.0 0.9 0.00 0.00 0.00 70 1015.6
20260901181531 88 321 0.0 0.9 0.00 0.00 0.00 70 1015.6
20260901181016 88 317 0.0 0.0 0.00 0.00 0.00 70 1015.6
20260901180516 88 317 0.0 0.9 0.00 0.00 0.00 70 1015.6
20260901180026 88 318 0.0 0.9 0.00 0.00 0.00 71 1015.7
20260901175522 88 238 0.0 0.9 0.00 0.00 0.00 69 1015.7
20260901175015 88 57 0.0 0.9 0.00 0.00 0.00 72 1015.9
20260901174538 88 58 0.0 0.9 0.00 0.00 0.00 72 1016.0
20260901174018 87 316 0.0 0.9 0.00 0.00 0.00 73 1016.0
20260901173513 87 283 0.0 0.9 0.00 0.00 0.00 72 1016.2
20260901173035 87 56 0.0 0.9 0.00 0.00 0.00 73 1016.3
20260901172514 87 274 0.0 0.9 0.00 0.00 0.00 74 1016.4
20260901172013 87 53 0.0 0.9 0.00 0.00 0.00 75 1016.5
20260901171540 86 91 0.0 0.9 0.00 0.00 0.00 76 1016.7
20260901171014 86 102 0.0 1.7 0.00 0.00 0.00 75 1016.7
20260901170517 86 116 0.0 1.7 0.00 0.00 0.00 77 1016.7
20260901170005 86 318 0.0 1.7 0.00 0.00 0.00 77 1017.0
20260901165505 86 269 0.0 0.9 0.00 0.00 0.00 77 1017.0
20260901165004 86 51 0.0 0.9 0.00 0.00 0.00 78 1017.0
20260901164505 86 325 0.0 0.9 0.00 0.00 0.00 78 1017.0
20260901164003 86 328 0.0 1.7 0.00 0.00 0.00 77 1016.9
20260901163503 86 328 0.0 2.6 0.00 0.00 0.00 77 1016.8
20260901163004 86 18 0.0 2.6 0.00 0.00 0.00 77 1016.9
20260901162502 86 355 0.0 2.6 0.00 0.00 0.00 77 1016.8
20260901162002 86 358 0.9 2.6 0.00 0.00 0.00 77 1016.7
20260901161511 85 320 0.0 0.9 0.00 0.00 0.00 78 1016.7
20260901161004 85 91 0.0 0.9 0.00 0.00 0.00 78 1016.8
20260901160507 85 331 0.0 0.9 0.00 0.00 0.00 78 1016.7
20260901160007 85 333 0.0 0.9 0.00 0.00 0.00 79 1016.6
20260901155503 85 302 0.0 0.9 0.00 0.00 0.00 79 1016.6
20260901155003 85 319 0.0 0.9 0.00 0.00 0.00 79 1016.7
20260901154505 84 297 0.0 0.9 0.00 0.00 0.00 78 1016.7
20260901154004 84 89 0.0 2.6 0.00 0.00 0.00 78 1016.7
20260901153506 84 319 0.0 2.6 0.00 0.00 0.00 78 1016.6
20260901153006 84 1 0.0 1.7 0.00 0.00 0.00 79 1016.7
20260901152503 84 258 0.0 2.6 0.00 0.00 0.00 79 1016.7
20260901152003 84 330 0.0 2.6 0.00 0.00 0.00 80 1016.7
20260901151505 84 337 0.0 1.7 0.00 0.00 0.00 80 1016.8
20260901151003 83 359 0.0 1.7 0.00 0.00 0.00 81 1016.7
20260901150504 83 307 0.0 1.7 0.00 0.00 0.00 82 1016.8
20260901150007 83 260 0.0 0.9 0.00 0.00 0.00 84 1016.8
20260901145504 82 335 0.0 0.9 0.00 0.00 0.00 86 1016.8
20260901145004 82 322 0.0 0.9 0.00 0.00 0.00 87 1016.9
20260901144515 81 330 0.0 0.9 0.00 0.00 0.00 88 1016.9
20260901144007 81 360 0.0 0.9 0.00 0.00 0.00 88 1016.8
20260901143503 81 320 0.0 0.9 0.00 0.00 0.00 89 1016.9
20260901143005 80 226 0.0 0.9 0.00 0.00 0.00 90 1016.9
20260901142505 80 205 0.0 0.0 0.00 0.00 0.00 91 1016.9
20260901142004 79 205 0.0 0.0 0.00 0.00 0.00 92 1016.9
20260901141506 79 22 0.0 0.0 0.00 0.00 0.00 92 1016.9
20260901141003 79 23 0.0 0.0 0.00 0.00 0.00 93 1016.9
20260901140504 78 23 0.0 0.0 0.00 0.00 0.00 95 1016.9
20260901140005 78 23 0.0 0.0 0.00 0.00 0.00 95 1016.9
20260901135504 77 21 0.0 0.0 0.00 0.00 0.00 96 1016.9
20260901135004 77 41 0.0 0.9 0.00 0.00 0.00 96 1016.9
20260901134509 76 41 0.0 0.9 0.00 0.00 0.00 96 1016.9
20260901134003 76 41 0.0 0.0 0.00 0.00 0.00 96 1016.8
20260901133503 76 41 0.0 0.0 0.00 0.00 0.00 96 1016.7
20260901133011 76 41 0.0 0.0 0.00 0.00 0.00 96 1016.7
20260901132504 76 41 0.0 0.0 0.00 0.00 0.00 96 1016.9
20260901132004 75 41 0.0 0.0 0.00 0.00 0.00 96 1016.8
20260901131510 75 41 0.0 0.0 0.00 0.00 0.00 96 1016.6
20260901131006 75 41 0.0 0.0 0.00 0.00 0.00 96 1016.5
20260901130506 75 41 0.0 0.0 0.00 0.00 0.00 96 1016.5
20260901130011 75 41 0.0 0.0 0.00 0.00 0.00 95 1016.5
20260901125503 75 41 0.0 0.0 0.00 0.00 0.00 95 1016.4
20260901125004 75 41 0.0 0.0 0.00 0.00 0.00 95 1016.4
20260901124512 75 41 0.0 0.0 0.00 0.00 0.00 95 1016.3
20260901124004 74 41 0.0 0.0 0.00 0.00 0.00 95 1016.2
20260901123505 74 41 0.0 0.0 0.00 0.00 0.00 95 1016.2
20260901123014 74 41 0.0 0.0 0.00 0.00 0.00 95 1016.2
20260901122506 74 41 0.0 0.0 0.00 0.00 0.00 95 1016.1
20260901122005 74 41 0.0 0.0 0.00 0.00 0.00 95 1016.0
20260901121507 74 41 0.0 0.0 0.00 0.00 0.00 95 1016.0
20260901121008 74 41 0.0 0.0 0.00 0.00 0.00 95 1015.9
20260901120505 74 41 0.0 0.0 0.00 0.00 0.00 95 1015.9
20260901120012 74 41 0.0 0.0 0.00 0.00 0.00 95 1015.9
20260901115507 74 41 0.0 0.0 0.00 0.00 0.00 95 1015.8
20260901115007 74 41 0.0 0.0 0.00 0.00 0.00 95 1015.8
20260901114512 74 41 0.0 0.0 0.00 0.00 0.00 95 1015.7
20260901114007 74 41 0.0 0.0 0.00 0.00 0.00 94 1015.8
20260901113508 74 41 0.0 0.0 0.00 0.00 0.00 94 1015.8
20260901113012 74 41 0.0 0.0 0.00 0.00 0.00 94 1015.7
20260901112507 74 41 0.0 0.0 0.00 0.00 0.00 94 1015.6
20260901112009 74 41 0.0 0.0 0.00 0.00 0.00 94 1015.7
20260901111515 75 41 0.0 0.0 0.00 0.00 0.00 94 1015.7
20260901111011 74 41 0.0 0.0 0.00 0.00 0.00 94 1015.7
20260901110506 74 41 0.0 0.0 0.00 0.00 0.00 94 1015.6
20260901110028 74 41 0.0 0.0 0.00 0.00 0.00 94 1015.7
20260901105504 75 41 0.0 0.0 0.00 0.00 0.00 94 1015.6
20260901105008 74 41 0.0 0.0 0.00 0.00 0.00 94 1015.6
20260901104516 74 41 0.0 0.0 0.00 0.00 0.00 94 1015.6
20260901104004 75 41 0.0 0.0 0.00 0.00 0.00 94 1015.5
20260901103507 75 41 0.0 0.0 0.00 0.00 0.00 94 1015.5
20260901103016 75 41 0.0 0.0 0.00 0.00 0.00 93 1015.5
20260901102504 75 41 0.0 0.0 0.00 0.00 0.00 93 1015.5
20260901102009 75 41 0.0 0.0 0.00 0.00 0.00 93 1015.5
20260901101522 75 41 0.0 0.0 0.00 0.00 0.00 93 1015.5
20260901101011 75 41 0.0 0.0 0.00 0.00 0.00 93 1015.4
20260901100507 75 41 0.0 0.0 0.00 0.00 0.00 94 1015.3
20260901100004 75 41 0.0 0.0 0.00 0.00 0.00 93 1015.4
20260901095508 75 41 0.0 0.0 0.00 0.00 0.00 93 1015.4
20260901095004 75 41 0.0 0.0 0.00 0.00 0.00 94 1015.4
20260901094503 75 41 0.0 0.0 0.00 0.00 0.00 93 1015.4
20260901094008 75 41 0.0 0.0 0.00 0.00 0.00 93 1015.4
20260901093503 75 41 0.0 0.0 0.00 0.00 0.00 93 1015.4
20260901093019 75 41 0.0 0.0 0.00 0.00 0.00 93 1015.4
20260901092509 75 41 0.0 0.0 0.00 0.00 0.00 93 1015.5
20260901092003 75 41 0.0 0.0 0.00 0.00 0.00 92 1015.3
20260901091518 75 41 0.0 0.0 0.00 0.00 0.00 92 1015.4
20260901091004 75 41 0.0 0.0 0.00 0.00 0.00 92 1015.5
20260901090511 76 41 0.0 0.0 0.00 0.00 0.00 92 1015.5
20260901090020 76 41 0.0 0.0 0.00 0.00 0.00 92 1015.5
20260901085504 76 41 0.0 0.0 0.00 0.00 0.00 92 1015.6
20260901085012 76 41 0.0 0.0 0.00 0.00 0.00 92 1015.6
20260901084518 76 41 0.0 0.0 0.00 0.00 0.00 92 1015.7
20260901084003 76 41 0.0 0.0 0.00 0.00 0.00 92 1015.7
20260901083510 76 41 0.0 0.0 0.00 0.00 0.00 92 1015.6
20260901083015 76 41 0.0 0.0 0.00 0.00 0.00 92 1015.6
20260901082512 76 41 0.0 0.0 0.00 0.00 0.00 92 1015.8
20260901082011 76 41 0.0 0.0 0.00 0.00 0.00 92 1015.8
20260901081511 76 41 0.0 0.0 0.00 0.00 0.00 92 1015.6
20260901081011 76 41 0.0 0.0 0.00 0.00 0.00 91 1015.7
20260901080507 76 41 0.0 0.0 0.00 0.00 0.00 91 1015.8
20260901080007 76 41 0.0 0.0 0.00 0.00 0.00 91 1015.9
20260901075512 76 41 0.0 0.0 0.00 0.00 0.00 91 1015.8
20260901075007 76 41 0.0 0.0 0.00 0.00 0.00 91 1015.8
20260901074526 76 41 0.0 0.0 0.00 0.00 0.00 91 1015.9
20260901074011 76 41 0.0 0.0 0.00 0.00 0.00 90 1015.9
20260901073504 77 41 0.0 0.0 0.00 0.00 0.00 90 1015.8
20260901073026 77 41 0.0 0.0 0.00 0.00 0.00 90 1015.8
20260901072509 77 41 0.0 0.0 0.00 0.00 0.00 90 1015.9
20260901072015 77 41 0.0 0.0 0.00 0.00 0.00 90 1015.9
20260901071528 77 41 0.0 0.0 0.00 0.00 0.00 90 1015.9
20260901071007 77 41 0.0 0.0 0.00 0.00 0.00 90 1015.9
20260901070511 77 41 0.0 0.0 0.00 0.00 0.00 90 1015.8
20260901070023 77 41 0.0 0.0 0.00 0.00 0.00 89 1015.7
20260901065504 77 41 0.0 0.0 0.00 0.00 0.00 89 1015.8
20260901065019 77 41 0.0 0.0 0.00 0.00 0.00 89 1015.8
20260901064535 78 41 0.0 0.0 0.00 0.00 0.00 89 1015.8
20260901064014 78 41 0.0 0.0 0.00 0.00 0.00 89 1015.8
20260901063512 78 41 0.0 0.0 0.00 0.00 0.00 89 1015.9
20260901063025 78 41 0.0 0.0 0.00 0.00 0.00 88 1015.9
20260901062512 78 41 0.0 0.0 0.00 0.00 0.00 88 1015.9
20260901062010 78 41 0.0 0.0 0.00 0.00 0.00 88 1015.9
20260901061510 78 41 0.0 0.0 0.00 0.00 0.00 88 1016.0
20260901061017 78 41 0.0 0.0 0.00 0.00 0.00 88 1016.0
20260901060509 78 41 0.0 0.0 0.00 0.00 0.00 88 1016.0
20260901060027 78 41 0.0 0.0 0.00 0.00 0.00 88 1016.1
20260901055512 78 41 0.0 0.0 0.00 0.00 0.00 88 1016.0
20260901055008 78 41 0.0 0.0 0.00 0.00 0.00 87 1016.0
20260901054528 78 41 0.0 0.0 0.00 0.00 0.00 87 1016.0
20260901054016 78 41 0.0 0.0 0.00 0.00 0.00 87 1016.0
20260901053504 79 41 0.0 0.0 0.00 0.00 0.00 87 1016.0
20260901053029 79 41 0.0 0.0 0.00 0.00 0.00 86 1016.0
20260901052509 79 41 0.0 0.0 0.00 0.00 0.00 86 1016.0
20260901052012 79 41 0.0 0.0 0.00 0.00 0.00 86 1015.9
20260901051529 79 41 0.0 0.0 0.00 0.00 0.00 85 1015.9
20260901051009 79 41 0.0 0.0 0.00 0.00 0.00 86 1015.9
20260901050519 79 41 0.0 0.0 0.00 0.00 0.00 86 1015.8
20260901050023 79 41 0.0 0.0 0.00 0.00 0.00 86 1015.8
20260901045517 79 41 0.0 0.0 0.00 0.00 0.00 86 1015.7
20260901045014 79 41 0.0 0.0 0.00 0.00 0.00 86 1015.6
20260901044520 79 41 0.0 0.0 0.00 0.00 0.00 86 1015.6
20260901044013 79 41 0.0 0.0 0.00 0.00 0.00 86 1015.6
20260901043514 79 41 0.0 0.0 0.00 0.00 0.00 86 1015.5
20260901043017 79 41 0.0 0.0 0.00 0.00 0.00 86 1015.6
20260901042516 79 41 0.0 0.0 0.00 0.00 0.00 86 1015.5
20260901042011 79 41 0.0 0.0 0.00 0.00 0.00 86 1015.6
20260901041527 79 41 0.0 0.0 0.00 0.00 0.00 86 1015.5
20260901041014 79 41 0.0 0.0 0.00 0.00 0.00 85 1015.5
20260901040511 79 41 0.0 0.0 0.00 0.00 0.00 85 1015.5
20260901040035 79 41 0.0 0.0 0.00 0.00 0.00 85 1015.4
20260901035514 79 41 0.0 0.0 0.00 0.00 0.00 85 1015.5
20260901035007 79 41 0.0 0.0 0.00 0.00 0.00 85 1015.4
20260901034530 79 41 0.0 0.0 0.00 0.00 0.00 84 1015.2
20260901034011 79 41 0.0 0.0 0.00 0.00 0.00 84 1015.1
20260901033514 80 41 0.0 0.0 0.00 0.00 0.00 84 1014.9
20260901033027 80 41 0.0 0.0 0.00 0.00 0.00 84 1015.0
20260901032513 80 41 0.0 0.0 0.00 0.00 0.00 84 1014.9
20260901032015 80 41 0.0 0.0 0.00 0.00 0.00 84 1014.9
20260901031507 80 41 0.0 0.0 0.00 0.00 0.00 83 1014.8
20260901031009 80 41 0.0 0.0 0.00 0.00 0.00 83 1014.7
20260901030505 80 41 0.0 0.0 0.00 0.00 0.00 83 1014.7
20260901030026 80 41 0.0 0.0 0.00 0.00 0.00 82 1014.7
20260901025507 80 41 0.0 0.0 0.00 0.00 0.00 82 1014.6
20260901025003 80 41 0.0 0.0 0.00 0.00 0.00 82 1014.6
20260901024528 80 41 0.0 0.0 0.00 0.00 0.00 82 1014.6
20260901024006 80 41 0.0 0.0 0.00 0.00 0.00 81 1014.6
20260901023503 81 41 0.0 0.0 0.00 0.00 0.00 80 1014.5
20260901023022 81 41 0.0 0.0 0.00 0.00 0.00 80 1014.5
20260901022505 81 41 0.0 0.0 0.00 0.00 0.00 80 1014.4
20260901022012 81 41 0.0 0.0 0.00 0.00 0.00 79 1014.3
20260901021516 81 41 0.0 0.0 0.00 0.00 0.00 79 1014.3
20260901021004 82 41 0.0 0.0 0.00 0.00 0.00 79 1014.3
20260901020510 82 41 0.0 0.0 0.00 0.00 0.00 78 1014.3
20260901020012 82 41 0.0 0.0 0.00 0.00 0.00 77 1014.2
20260901015502 82 41 0.0 0.0 0.00 0.00 0.00 77 1014.1
20260901015007 83 41 0.0 0.0 0.00 0.00 0.00 77 1014.1
20260901014509 83 41 0.0 0.0 0.00 0.00 0.00 76 1014.1
20260901014012 83 41 0.0 0.0 0.00 0.00 0.00 75 1014.1
20260901013508 83 41 0.0 0.0 0.00 0.00 0.00 75 1014.0
20260901013007 84 41 0.0 0.0 0.00 0.00 0.00 74 1013.9
20260901012516 84 41 0.0 0.0 0.00 0.00 0.00 74 1014.0
20260901012005 84 41 0.0 0.0 0.00 0.00 0.00 73 1014.0
20260901011506 85 41 0.0 0.0 0.00 0.00 0.00 72 1013.9
20260901011008 85 41 0.0 0.0 0.00 0.00 0.00 72 1013.9
20260901010503 85 41 0.0 0.0 0.00 0.00 0.00 71 1013.9
20260901010028 86 41 0.0 0.0 0.00 0.00 0.00 70 1013.8
20260901005508 86 41 0.0 0.0 0.00 0.00 0.00 70 1013.8
20260901005003 86 41 0.0 0.0 0.00 0.00 0.00 70 1013.7
20260901004533 87 41 0.0 0.0 0.00 0.00 0.00 69 1013.8
20260901004003 87 41 0.0 0.0 0.00 0.00 0.00 69 1013.8
20260901003515 87 41 0.0 0.0 0.00 0.00 0.00 68 1013.8
20260901003025 87 41 0.0 0.0 0.00 0.00 0.00 68 1013.9
20260901002504 87 41 0.0 0.0 0.00 0.00 0.00 67 1014.0
20260901002013 88 41 0.0 0.0 0.00 0.00 0.00 67 1013.9
20260901001523 88 41 0.0 0.0 0.00 0.00 0.00 67 1014.0
20260901001003 88 41 0.0 0.0 0.00 0.00 0.00 65 1014.0
20260901000513 88 41 0.0 0.0 0.00 0.00 0.00 65 1014.0
20260901000016 89 41 0.0 0.9 0.00 0.00 0.00 64 1014.1
20260831235515 89 42 0.0 0.9 0.00 0.00 0.00 63 1014.2
20260831235010 90 41 0.0 0.0 0.00 0.00 0.00 63 1014.3
20260831234511 90 41 0.0 0.9 0.00 0.00 0.00 61 1014.3
20260831234012 90 41 0.0 0.9 0.00 0.00 0.00 62 1014.4
20260831233510 91 33 0.0 0.9 0.00 0.00 0.00 61 1014.3
20260831233007 91 33 0.0 0.9 0.00 0.00 0.00 60 1014.3
20260831232512 92 50 0.0 0.9 0.00 0.00 0.00 57 1014.2
20260831232007 92 69 0.0 0.9 0.00 0.00 0.00 57 1014.2
20260831231527 93 77 0.0 0.9 0.00 0.00 0.00 57 1014.1
20260831231010 93 96 0.0 1.7 0.00 0.00 0.00 55 1014.1
20260831230504 93 94 0.0 1.7 0.00 0.00 0.00 57 1013.9
20260831230036 93 75 0.0 0.9 0.00 0.00 0.00 57 1013.8
20260831225508 94 94 0.0 1.7 0.00 0.00 0.00 57 1013.9
20260831225015 93 233 0.0 1.7 0.00 0.00 0.00 57 1014.0
20260831224523 93 100 0.0 1.7 0.00 0.00 0.00 58 1013.8
20260831224005 93 122 0.0 1.7 0.00 0.00 0.00 58 1014.0
20260831223515 93 138 0.0 1.7 0.00 0.00 0.00 58 1014.2
20260831223022 93 111 0.0 1.7 0.00 0.00 0.00 58 1014.1
20260831222506 93 134 0.0 0.9 0.00 0.00 0.00 58 1014.0
20260831222015 93 219 0.0 1.7 0.00 0.00 0.00 58 1014.0
20260831221527 93 190 0.0 3.5 0.00 0.00 0.00 58 1014.1
20260831221016 93 213 0.0 3.5 0.00 0.00 0.00 57 1014.1
20260831220511 94 98 0.0 1.7 0.00 0.00 0.00 57 1014.0
20260831220015 94 155 0.0 1.7 0.00 0.00 0.00 56 1014.0
20260831215516 94 295 0.0 1.7 0.00 0.00 0.00 55 1014.1
20260831215013 95 107 0.0 1.7 0.00 0.00 0.00 53 1014.0
20260831214532 95 223 0.0 0.9 0.00 0.00 0.00 50 1014.0
20260831214013 96 170 0.0 0.9 0.00 0.00 0.00 48 1014.1
20260831213507 97 121 0.0 0.9 0.00 0.00 0.00 47 1014.2
20260831213030 97 157 0.0 0.9 0.00 0.00 0.00 46 1014.1
20260831212513 98 63 0.0 1.7 0.00 0.00 0.00 45 1014.0
20260831212007 99 79 0.0 1.7 0.00 0.00 0.00 43 1014.1
20260831211504 100 178 0.0 1.7 0.00 0.00 0.00 43 1014.2
20260831211003 102 349 0.0 0.9 0.00 0.00 0.00 42 1014.0
20260831210504 102 354 0.0 1.7 0.00 0.00 0.00 42 1014.1
20260831210005 101 52 0.0 1.7 0.00 0.00 0.00 44 1014.3
20260831205508 100 205 0.0 1.7 0.00 0.00 0.00 46 1014.3
20260831205004 98 129 0.0 0.9 0.00 0.00 0.00 46 1014.3
20260831204504 97 75 0.0 0.9 0.00 0.00 0.00 47 1014.4
20260831204009 97 77 0.0 0.9 0.00 0.00 0.00 48 1014.6
20260831203504 97 65 0.0 2.6 0.00 0.00 0.00 47 1014.7
20260831203003 98 120 0.0 2.6 0.00 0.00 0.00 45 1014.6
20260831202505 98 78 0.0 2.6 0.00 0.00 0.00 46 1014.6
20260831202004 99 44 0.0 1.7 0.00 0.00 0.00 44 1014.8
20260831201527 99 126 0.0 2.6 0.00 0.00 0.00 45 1014.9
20260831201003 99 115 0.0 2.6 0.00 0.00 0.00 47 1014.9
20260831200502 99 269 0.0 0.9 0.00 0.00 0.00 46 1015.0
20260831200035 98 319 0.0 2.6 0.00 0.00 0.00 47 1015.0
20260831195502 99 47 0.0 2.6 0.00 0.00 0.00 46 1015.2
20260831195002 100 179 0.0 2.6 0.00 0.00 0.00 46 1015.3
20260831194513 100 224 0.0 4.3 0.00 0.00 0.00 47 1015.3
20260831194007 100 88 0.9 5.2 0.00 0.00 0.00 46 1015.3
20260831193510 99 236 1.7 5.2 0.00 0.00 0.00 46 1015.4
20260831193010 99 155 0.0 2.6 0.00 0.00 0.00 47 1015.5
20260831192507 99 40 0.0 2.6 0.00 0.00 0.00 46 1015.5
20260831192010 98 213 0.0 2.6 0.00 0.00 0.00 49 1015.6
20260831191504 97 203 0.9 2.6 0.00 0.00 0.00 50 1015.8
20260831191012 96 98 0.0 0.9 0.00 0.00 0.00 51 1015.9
20260831190506 95 245 0.0 1.7 0.00 0.00 0.00 52 1015.9
20260831190006 95 254 0.0 1.7 0.00 0.00 0.00 52 1016.0
20260831185510 95 73 0.0 1.7 0.00 0.00 0.00 52 1016.1
20260831185005 95 51 0.0 1.7 0.00 0.00 0.00 52 1016.2
20260831184511 95 225 0.0 1.7 0.00 0.00 0.00 52 1016.2